Location: Spondin
(51.8528°N, 111.6118°W)
Time: 18:26:57
(UTC+00:00)

Vanguard 2 Rocket - Pass Details

Date: 01 June 2022
Orbit: 553 x 3323 km, 32.9° (Epoch: 02 July)

Event Time Altitude Azimuth Distance (km) Brightness Sun altitude
Rises 18:48:15 0° 224° (SW) 6,951 11.6 59.5°
Reaches altitude 10° 18:53:23 10° 216° (SW) 6,131 11.5 59.7°
Maximum altitude 19:09:55 34° 161° (SSE) 4,474 11.8 60.1°
Drops below altitude 10° 19:24:38 10° 105° (ESE) 5,494 11.1 60.3°
Sets 19:28:52 0° 97° (E) 6,181 11.2 60.3°
